User: anonymous   Login
Location: Berg
(47.2344°N, 9.5296°E)
Time: 20:01:42
(UTC+00:00)
Language:

ATLAS 5 CENTAUR R/B - Orbit

View from above orbital plane
View from above orbital plane
View from above satellite
View from above satellite

Ground track
Ground track

The orbit data is extracted from the following two-line orbital elements,

1 31702U 07027B   21103.93258955 0.00000300  00000-0  55253-4 0    02
2 31702  63.3482 106.4277 0433883  18.5677 341.4323 14.18909643    06
Epoch (UTC): 13 April 2021 22:22:55
Eccentricity: 0.0433883
inclination: 63.3482°
perigee height: 516 km
apogee height: 1142 km
right ascension of ascending node: 106.4277°
argument of perigee: 18.5677°
revolutions per day: 14.18909643
mean anomaly at epoch: 341.4323°
orbit number at epoch: 0

The dashed part of the orbit path shows where the satellite is in the earth's shadow,  

DLR